Location: Kawakawa
(35.3830°S, 174.0670°E)
Time: 14:12:58
(UTC+13:00)

Altair - Pass Details

Date: 09 December 2019
Orbit: 1502 x 1682 km, 47.2° (Epoch: 17 January)

Event Time Altitude Azimuth Distance (km) Brightness Sun altitude
Rises 09:33:33 0° 325° (NW) 4,722 9.8 40.5°
Reaches altitude 10° 09:36:37 10° 328° (NNW) 3,767 9.4 41.1°
Maximum altitude 09:45:58 58° 44° (NE) 1,842 9.2 43.0°
Drops below altitude 10° 09:55:44 10° 120° (ESE) 3,926 10.4 45.0°
Sets 09:58:59 0° 123° (ESE) 4,932 10.7 45.7°
